Location: B�rgermoos
(47.6500°N, 9.0667°E)
Time: 01:25:41
(UTC+00:00)

Tiros 1 - Pass Details

Date: 12 August 2021
Orbit: 630 x 663 km, 48.4° (Epoch: 16 September)

Event Time Altitude Azimuth Distance (km) Brightness Sun altitude
Rises 15:59:59 0° 272° (W) 2,994 11.9 25.7°
Reaches altitude 10° 16:02:21 10° 273° (W) 2,080 11.6 25.3°
Maximum altitude 16:07:10 81° 1° (N) 673 7.7 24.5°
Drops below altitude 10° 16:11:57 10° 89° (E) 2,066 9.3 23.7°
Sets 16:14:18 0° 91° (E) 2,973 10.0 23.3°
